Theta_e
309 307 303 306 312 313 318 323 323 322 326 325 325 331 331 339 342 343 349 353 352 357 357 358 357 355 353 352 351 352 352 352
306 304 309 310 313 315 318 323 324 324 321 326 333 334 336 341 341 343 346 350 355 356 356 356 356 355 354 353 352 351 351 351
304 305 310 313 314 318 317 322 322 324 322 324 331 336 340 339 338 340 343 348 356 356 356 356 355 354 353 353 351 351 351 350
301 303 309 313 315 315 317 322 322 322 323 326 335 337 338 337 338 340 342 347 355 356 356 355 355 354 353 352 351 350 350 350
303 303 307 311 316 314 316 319 320 325 321 329 332 337 339 336 337 339 342 344 356 356 354 356 355 354 353 352 350 350 350 349
307 304 305 311 313 315 316 317 324 327 322 325 332 338 338 336 337 339 341 343 346 356 349 348 349 355 354 352 352 350 350 350
307 307 308 312 311 315 318 316 319 326 328 330 334 339 337 334 335 336 337 341 346 348 349 347 345 348 353 353 352 351 350 350
313 313 311 312 312 313 314 315 317 323 326 328 334 335 333 332 332 334 335 338 343 347 349 349 343 348 351 346 347 346 344 345
314 316 315 312 312 315 313 313 318 320 325 327 328 333 331 331 333 334 336 338 343 354 355 350 346 343 348 349 347 348 349 350
314 316 317 313 313 312 314 315 320 324 327 327 326 328 332 333 333 335 337 339 343 349 358 360 350 346 346 346 350 348 348 354
315 315 316 317 314 314 314 318 320 321 325 325 326 328 331 332 333 334 334 337 339 345 362 363 362 350 351 352 348 350 350 355
313 314 315 314 313 314 318 320 319 319 320 323 324 328 330 331 332 334 335 336 338 340 361 360 359 362 359 359 352 350 349 353
308 311 311 315 309 310 317 319 319 320 321 323 326 328 328 329 332 333 335 337 344 349 351 364 361 359 359 352 353 349 349 359
305 308 310 310 304 312 316 316 317 318 320 322 325 326 328 329 331 335 336 342 346 338 342 360 360 358 354 350 350 348 350 352
301 307 307 306 305 312 316 316 316 318 319 320 322 325 330 328 330 333 337 342 342 347 339 349 358 350 352 357 348 346 347 348
298 304 306 304 304 309 313 313 315 317 319 320 322 323 327 330 332 334 338 345 349 345 351 356 348 354 343 341 344 347 347 348
299 304 303 302 304 306 310 311 312 315 317 319 321 325 327 329 330 331 339 343 346 344 353 348 340 337 336 339 343 345 348 353
298 301 302 303 302 306 309 310 312 313 315 318 319 322 324 326 328 334 338 341 345 347 352 353 343 346 342 346 343 347 348 353
294 298 301 301 299 302 307 310 312 313 315 317 318 319 321 323 327 328 334 339 340 347 352 355 352 348 351 350 351 346 348 349
294 292 289 300 291 300 304 306 309 311 313 315 316 318 320 322 326 329 331 332 339 344 350 352 358 347 354 345 343 345 348 349
Wind_Speed
10 15 17 15 17 11 17 6 8 6 7 7 6 3 6 20 15 18 18 19 18 22 19 17 16 15 14 14 14 13 13 13
14 20 21 22 3 6 10 7 8 10 4 3 3 2 10 17 18 18 18 18 19 22 19 18 16 15 14 14 13 13 13 13
17 21 23 14 15 8 7 9 7 10 11 9 8 3 17 18 17 17 17 16 19 22 20 19 18 17 16 14 14 14 14 14
17 22 19 19 10 11 14 14 12 10 12 7 10 10 15 20 17 17 16 15 17 19 18 18 18 17 16 15 15 14 14 15
21 21 21 13 12 14 17 17 17 15 17 13 12 12 15 19 15 15 15 14 15 15 17 15 16 17 17 16 16 15 15 15
21 19 21 18 16 18 16 17 16 10 11 15 11 9 13 18 17 15 15 15 14 14 17 16 16 16 17 17 16 17 16 16
25 22 19 12 19 21 16 17 15 9 14 7 5 10 15 18 17 14 14 15 14 15 17 16 16 16 15 17 17 16 16 17
23 19 15 11 16 19 18 15 18 16 1 2 8 13 17 17 15 16 16 16 13 12 14 16 13 14 15 15 13 14 15 15
23 23 19 16 20 18 22 17 19 17 15 10 3 12 16 18 16 17 15 13 12 11 9 13 12 10 8 9 10 10 15 13
27 28 21 17 18 22 24 21 19 17 17 15 7 7 12 12 14 11 10 12 13 14 11 10 9 10 10 9 10 10 13 15
28 26 24 25 22 24 24 24 23 21 11 12 11 11 10 10 10 9 8 9 8 8 12 10 10 10 9 9 10 11 12 14
29 29 28 27 28 19 29 24 26 24 22 18 18 19 15 13 11 12 12 11 11 8 9 12 11 11 8 9 11 10 11 11
29 30 33 28 27 31 30 26 26 26 22 21 23 22 19 14 14 12 12 12 10 7 8 11 13 11 10 10 11 11 10 11
33 29 29 24 35 37 28 26 29 29 26 22 24 23 20 17 17 14 13 12 9 10 11 12 11 9 9 10 10 10 10 9
31 30 29 30 36 32 32 29 27 29 26 25 25 26 19 19 19 12 10 11 11 10 11 8 7 9 10 10 10 10 10 10
30 28 28 30 37 32 29 27 26 31 25 25 25 23 20 13 8 9 9 10 10 10 10 9 7 7 9 10 10 10 10 10
30 24 29 29 31 34 30 26 28 26 25 27 24 21 21 15 12 13 11 11 12 12 13 9 9 10 10 10 10 9 9 10
28 30 27 25 28 32 26 29 27 28 28 24 20 21 19 18 16 14 13 13 13 14 14 10 9 8 9 7 9 9 9 9
29 25 26 27 29 31 30 27 24 27 28 28 27 23 19 18 16 16 15 14 14 14 14 12 12 8 6 7 7 8 9 9
22 24 22 29 23 26 29 28 25 27 25 23 20 20 20 21 19 19 18 17 16 15 14 12 11 11 11 9 9 8 8 10
Wind_Direction
230 234 249 260 201 183 202 95 234 238 218 201 183 299 76 125 146 146 149 159 172 171 174 175 177 177 179 181 178 178 175 176
262 252 229 262 328 195 196 193 216 246 190 186 358 52 118 141 149 155 162 165 154 166 173 176 179 178 182 184 183 184 183 183
249 245 266 254 268 234 250 224 211 192 227 204 171 203 125 154 165 163 163 166 152 164 174 176 179 180 183 187 188 190 189 188
246 248 250 257 253 234 241 240 229 209 243 214 136 176 155 165 170 165 160 165 147 165 175 176 178 182 185 191 191 195 195 196
252 272 280 260 249 229 240 240 236 227 222 228 176 195 174 174 168 154 154 170 147 173 177 178 182 186 184 190 194 199 198 200
254 252 250 269 292 291 258 249 266 292 231 226 188 144 180 175 170 166 167 170 167 170 184 190 189 192 189 190 194 201 200 200
252 253 253 239 248 246 256 257 284 246 250 30 89 174 188 184 178 180 180 175 182 175 181 194 196 192 196 200 199 201 204 205
254 266 282 268 265 266 241 224 238 214 173 203 175 194 188 189 186 193 187 182 182 195 190 190 202 192 196 204 211 212 213 211
248 245 256 258 264 268 267 240 217 228 187 195 140 198 205 192 201 197 205 187 184 176 204 209 204 193 191 203 202 210 215 211
255 274 275 244 257 264 268 259 257 231 215 174 176 220 233 237 215 228 216 209 187 176 190 215 228 204 205 216 202 204 206 208
250 250 254 267 244 256 256 256 265 260 244 211 233 239 253 271 285 288 265 216 227 228 174 197 216 236 212 223 217 220 211 194
253 253 248 241 249 252 253 257 256 248 251 243 238 235 230 232 242 259 261 252 250 218 181 186 211 219 236 215 236 221 226 211
261 244 248 251 247 237 248 253 248 253 243 244 251 250 242 237 241 238 253 257 251 242 218 190 204 216 221 242 224 238 229 216
244 247 248 240 250 247 242 243 246 247 251 239 237 242 245 239 243 242 244 257 247 255 205 187 210 220 227 231 231 241 227 221
253 241 239 237 248 248 251 251 246 239 240 241 243 241 243 249 251 245 236 242 242 237 245 260 233 232 236 242 241 241 227 221
255 258 233 235 241 245 248 250 253 257 251 234 237 236 232 217 230 242 247 254 241 254 265 268 249 239 250 247 232 231 227 216
275 264 243 260 240 243 239 237 252 259 238 245 246 243 246 231 232 242 230 231 241 253 253 248 244 236 234 232 228 223 219 203
271 269 274 265 256 261 248 238 233 242 250 255 243 239 247 250 248 244 240 237 236 240 245 232 224 238 268 253 229 211 199 185
280 286 267 260 262 267 259 248 244 243 246 250 249 250 255 259 257 256 248 240 230 233 233 227 227 221 220 256 259 196 185 176
270 264 260 252 260 245 244 250 243 245 241 246 252 256 249 249 250 248 244 244 235 227 221 216 208 229 211 219 210 204 195 184